Simultaneous Nadir Overpasses (SNOs) Predictions

Prediction of SNOs between GOES-14 and NOAA-20 Satellite Orbit:

Table of predicted SNOs for the next 14.0 days since TLE Epoch: 1/29/2022
Index Date Time (GOES-14) GOES-14 Lat,Lon NOAA-20 Lat,Lon Distance(km) Time Diff (sec)
1 01/29/2022 20:41:32 -0.01,-104.30 -1.00,-108.69 499.94 80
2 01/30/2022 20:20:09 -0.02,-104.30 0.00,-104.16 15.89 80
3 02/02/2022 08:23:17 0.02,-104.61 0.08,-104.92 35.78 80
4 02/03/2022 08:07:13 0.02,-104.61 -0.93,-100.39 480.94 80
5 02/04/2022 20:29:10 -0.02,-104.32 -0.33,-105.69 155.73 80
6 02/05/2022 20:07:47 -0.02,-104.33 0.67,-101.16 360.56 80
7 02/07/2022 08:29:38 0.01,-104.63 0.41,-106.45 207.39 80
8 02/08/2022 08:13:35 0.01,-104.64 -0.59,-101.93 309.65 80
9 02/09/2022 20:35:32 -0.01,-104.36 -0.66,-107.22 325.64 80
10 02/10/2022 20:14:09 -0.01,-104.37 0.35,-102.69 190.39 80
